sat.trackr.live / text

‹ back to catalog

STARLINK-32077

NORAD 60344 · 2024-136R

PAYLOAD ACTIVE UNKNOWN

§ Identity

Operator
Country
US
Launch date
2024-08-02
Launch site
AFETR
Launch vehicle
Mass (kg)
RCS (m²)

Purposes: comms

External: N2YO · Heavens-Above · Gunter

§ Orbital elements

Epoch: 2026-09-21T08:01:19.011648Z

Period
93.85 min
Inclination
53.1589°
Eccentricity
0.0001416
Mean motion
15.34387826 rev/d
Perigee alt
461.8 km
Apogee alt
463.7 km
Semi-major
6,840.9 km
B*
1.6847e-5
RAAN
245.8507°
Arg perigee
81.4627°
Mean anomaly
278.6536°
Rev number
11,963

§ Raw data

STARLINK-320771 60344U 24136R   26264.33424782  .00000193  00000+0  16847-4 0  99982 60344  53.1589 245.8507 0001416  81.4627 278.6536 15.34387826119635

JSON: /api/v1/satellites/60344 · /tle

For live sub-satellite position, see the globe view (requires WebGL).

§ Visibility from observer

Set your observer location to see the next 7 days of passes ≥ 10°. The values pass through the URL so the page stays shareable.

No JS? Fill the form by hand. The geolocation button needs JavaScript.